[[{"header":{"parameterUnit":"m.s-1","parameterCategory":1,"la1":30.2991,"la2":30.254,"lo1":-89.0895,"lo2":-89.0444,"dy":0.0017,"dx":0.0017,"nx":28,"ny":28,"refTime":"2025-07-29T09:00:00:Z","depth":0,"parameterNumber":2,"parameterNumberName":"U-component_of_WINDS"},"data":[0,0,0,0,0,0,0,0,0,0,0,0,0,0,0,0,0,0,0,0,0,0,0,0,0,0,0,0,0,0,0,0,0,0,0,0,0,0,0,0,0,0,0,0,0,0,0,0,0,0,0,0,0,0,0,0,0,0,-2.8822,-2.8819,0,-2.8459,-2.8455,-2.845,-2.8179,-2.8177,-2.8174,-2.8172,-2.7789,-2.7781,-2.7773,0,0,0,0,0,0,0,0,0,0,0,0,0,-2.9271,-2.9265,-2.8823,-2.8818,-2.8814,-2.8459,-2.8454,-2.8449,-2.8179,-2.8177,-2.8174,-2.8171,-2.7791,-2.7782,-2.7772,0,0,0,0,0,0,0,0,0,0,0,0,0,-2.9009,-2.9263,-2.8824,-2.8637,-2.8616,-2.846,-2.8454,-2.8448,-2.818,-2.8177,-2.8173,-2.817,-2.7794,-2.7783,-2.7771,-2.7768,0,0,-2.7734,-2.7729,0,0,0,0,0,0,0,0,-2.9024,-2.8993,-2.8669,-2.8649,-2.8626,-2.8361,-2.8471,-2.822,-2.8181,-2.8345,-2.8172,-2.8168,-2.7981,-2.7954,-2.7893,-2.775,-2.7734,-2.7733,-2.7726,-2.7721,-2.7717,0,0,0,0,0,0,0,-2.9043,-2.9007,-2.8678,-2.8664,-2.8638,-2.8567,-2.8526,-2.8423,-2.8187,-2.8331,-2.831,-2.8271,-2.7969,-2.7905,-2.7882,-2.7728,-2.7733,-2.7723,-2.7715,-2.7711,-2.756,-2.7563,0,0,0,0,0,0,-2.9092,-2.9024,-2.869,-2.8667,-2.8821,-2.8562,-2.8515,-2.8449,-2.8188,-2.8145,-2.8275,-2.826,-2.7927,-2.7896,-2.7867,-2.7845,-2.7721,-2.771,-2.7703,-2.7557,-2.7561,-2.7564,0,0,0,0,0,0,-2.9103,-2.9065,-2.8704,-2.884,-2.8789,-2.8558,-2.8486,-2.8444,-2.838,-2.8146,-2.8101,-2.8254,-2.7923,-2.7884,-2.7795,-2.7828,-2.7704,-2.7693,-2.7553,-2.7558,-2.7563,-2.7803,0,0,0,0,0,0,-2.9117,-2.907,-2.907,-2.8842,-2.8783,-2.8643,-2.8488,-2.844,-2.8362,-2.8339,-2.8114,-2.8073,-2.7917,-2.7814,-2.7783,-2.7809,-2.7684,-2.7549,-2.7556,-2.7561,-2.7791,-2.7815,-2.7836,0,0,0,0,0,-2.9134,-2.9151,-2.9072,-2.9033,-2.8778,-2.8646,-2.8611,-2.8434,-2.8366,-2.8361,-2.821,-2.8081,-2.783,-2.7807,-2.777,-2.7793,-2.7546,-2.7554,-2.7561,-2.7781,-2.781,-2.7835,0,0,0,0,0,0,-2.9386,-2.9117,-2.9027,-2.8971,-2.8834,-2.86,-2.859,-2.8472,-2.8348,-2.8332,-2.8114,-2.8065,-2.7998,-2.7885,-2.7866,-2.7774,-2.7671,-2.7671,-2.7851,-2.7877,-2.79,-2.7928,-2.7674,0,0,0,0,0,-2.9436,-2.9354,-2.9122,-2.9095,-2.9031,-2.8824,-2.8759,-2.8635,-2.8482,-2.8421,-2.8263,-2.8116,-2.8003,-2.7934,-2.7817,-2.7772,-2.7717,-2.7769,-2.7792,-2.7812,-2.7814,-2.7779,-2.7798,-2.7588,-2.7588,-2.7588,0,0,-2.9536,-2.9379,-2.9341,-2.9142,-2.9021,-2.8937,-2.8776,-2.8695,-2.8629,-2.8407,-2.8314,-2.8193,-2.8014,-2.7947,-2.7909,-2.7851,-2.786,-2.7821,-2.7839,-2.783,-2.7788,-2.7808,-2.7826,-2.7593,-2.7592,-2.7591,0,0,-2.9677,-2.9552,-2.9515,-2.9397,-2.9216,-2.9077,-2.9069,-2.8852,-2.8764,-2.8668,-2.8499,-2.8415,-2.8227,-2.8105,-2.8019,-2.8112,-2.7987,-2.808,-2.8198,-2.8166,-2.8182,-2.8196,-2.8227,-2.8241,-2.8083,-2.8083,-2.8084,0,-2.9825,-2.9697,-2.951,-2.9439,-2.9355,-2.9152,-2.9111,-2.9004,-2.8793,-2.8738,-2.8676,-2.8434,-2.8299,-2.82,-2.8223,-2.816,-2.814,-2.8105,-2.8196,-2.8207,-2.8217,-2.8244,-2.8257,-2.8096,-2.8094,-2.8093,-2.8092,0,-2.9885,-2.9798,-2.9789,-2.9595,-2.9509,-2.9453,-2.9255,-2.9189,-2.9072,-2.8938,-2.884,-2.8671,-2.8516,-2.8482,-2.8366,-2.8365,-2.8334,-2.8238,-2.8129,-2.8253,-2.8275,-2.8284,-2.8113,-2.8109,-2.8105,-2.8102,0,0,-3.0178,-2.988,-2.9879,-2.9787,-2.9572,-2.9499,-2.9431,-2.9282,-2.923,-2.909,-2.9026,-2.887,-2.8778,-2.8681,-2.8547,-2.852,-2.8601,-2.8424,-2.8417,-2.8462,-2.8586,-2.8661,-2.8677,-2.8517,-2.8518,-2.8519,-2.8601,0,-3.0285,-3.0158,-2.9987,-2.9916,-2.9831,-2.9635,-2.9576,-2.9435,-2.9307,-2.9213,-2.9069,-2.8962,-2.885,-2.879,-2.8753,-2.86,-2.8623,-2.8591,-2.8451,-2.8448,-2.8503,-2.8688,-2.8767,-2.8854,-2.8608,-2.861,-2.8611,0,-3.0394,-3.0268,-3.019,-2.9979,-2.9937,-2.9888,-2.9736,-2.965,-2.9483,-2.9391,-2.9283,-2.9139,-2.9053,-2.8956,-2.8832,-2.8815,-2.8746,-2.8661,-2.866,-2.864,-2.8538,-2.8673,-2.8877,-2.889,-2.8622,-2.8621,-2.8621,0,-3.0615,-3.0425,-3.0352,-3.028,-3.0032,-3.0002,-2.9896,-2.9726,-2.9647,-2.9512,-2.9458,-2.9314,-2.9236,-2.9125,-2.8945,-2.8892,-2.8839,-2.8728,-2.8758,-2.8763,-2.8756,-2.8759,-2.8952,-2.8713,-2.8713,-2.8713,-2.8713,0,-3.0753,-3.0713,-3.0448,-3.0405,-3.0351,-3.0152,-3.0104,-2.9979,-2.983,-2.9754,-2.9574,-2.9507,-2.9273,-2.9175,-2.9033,-2.895,-2.8916,-2.8836,-2.8799,-2.8853,-2.8863,-2.8806,-2.8795,-2.8716,-2.8715,-2.8715,-2.8714,0,-3.0991,-3.0813,-3.0722,-3.0495,-3.0436,-3.0407,-3.021,-3.0157,-3.0018,-2.9925,-2.9891,-2.9672,-2.9548,-2.9357,-2.9176,-2.9079,-2.902,-2.8958,-2.9079,-2.9056,-2.9096,-2.9096,-2.9259,-2.9269,-2.9027,-2.9029,-2.9031,0,-3.1092,-3.1057,-3.0826,-3.0765,-3.0667,-3.057,-3.0488,-3.0288,-3.021,-3.0016,-2.9986,-2.9849,-2.9729,-2.9539,-2.9361,-2.922,-2.9153,-2.922,-2.913,-2.9185,-2.9153,-2.9158,-2.9152,-2.9242,-2.9245,-2.9248,-2.9251,0,-3.129,-3.1202,-3.1094,-3.0955,-3.0863,-3.0742,-3.0612,-3.0571,-3.0341,-3.0261,-3.0135,-3.0042,-2.9857,-2.9722,-2.9556,-2.944,-2.9307,-2.928,-2.9279,-2.9334,-2.9405,-2.9366,-2.9136,-2.9277,-2.9275,-2.9273,-2.9271,-2.927,-3.1461,-3.142,-3.1251,-3.1135,-3.1017,-3.0899,-3.0838,-3.0692,-3.0584,-3.0421,-3.0307,-3.0187,-3.0015,-2.9779,-2.9671,-2.957,-2.9512,-2.9512,-2.9511,-2.9515,-2.9534,-2.9422,-2.9539,-2.9538,-2.9537,-2.9536,-2.9535,0,-3.1649,-3.153,-3.1426,-3.1251,-3.1159,-3.1043,-3.0892,-3.0821,-3.0719,-3.0573,-3.0459,-3.0311,-3.0178,-2.9989,-2.984,-2.9796,-2.973,-2.9763,-2.9765,-2.974,-2.9595,-2.961,-2.9819,-2.9819,-2.9819,-2.9819,-2.9819,-2.9819,-3.1736,-3.166,-3.1552,-3.1413,-3.1292,-3.1177,-3.11,-3.0988,-3.087,-3.0715,-3.0605,-3.0484,-3.0318,-3.0155,-3.0027,-2.9973,-2.9927,-2.9979,-2.9908,-2.9776,-2.975,-2.9726,-2.9739,-2.9971,-2.9971,-3.006,-3.0061,-3.0062]},{"header":{"parameterUnit":"m.s-1","parameterCategory":1,"la1":30.2991,"la2":30.254,"lo1":-89.0895,"lo2":-89.0444,"dy":0.0017,"dx":0.0017,"nx":28,"ny":28,"refTime":"2025-07-29T09:00:00:Z","depth":0,"parameterNumber":3,"parameterNumberName":"V-component_of_WINDS"},"data":[0,0,0,0,0,0,0,0,0,0,0,0,0,0,0,0,0,0,0,0,0,0,0,0,0,0,0,0,0,0,0,0,0,0,0,0,0,0,0,0,0,0,0,0,0,0,0,0,0,0,0,0,0,0,0,0,0,0,5.7356,5.7357,0,5.749,5.7491,5.7493,5.7471,5.7469,5.7467,5.7464,5.7587,5.7592,5.7597,0,0,0,0,0,0,0,0,0,0,0,0,0,5.7065,5.707,5.7356,5.7357,5.7359,5.749,5.7492,5.7493,5.7471,5.7469,5.7466,5.7463,5.7585,5.7591,5.7598,0,0,0,0,0,0,0,0,0,0,0,0,0,5.7194,5.7072,5.7355,5.7364,5.7366,5.7489,5.7492,5.7494,5.7472,5.7469,5.7465,5.7462,5.7583,5.7591,5.7598,5.7716,0,0,5.7623,5.7627,0,0,0,0,0,0,0,0,5.7187,5.7204,5.7361,5.7364,5.7367,5.7461,5.7434,5.7568,5.7473,5.7431,5.7464,5.746,5.7546,5.7557,5.7589,5.7722,5.7727,5.7624,5.7629,5.7632,5.7634,0,0,0,0,0,0,0,5.7178,5.7198,5.7408,5.7363,5.7367,5.7356,5.7371,5.7459,5.7506,5.7435,5.7434,5.7451,5.7547,5.7582,5.7592,5.7729,5.7624,5.7631,5.7636,5.7639,5.7963,5.7967,0,0,0,0,0,0,5.7168,5.7191,5.7404,5.7412,5.7267,5.7364,5.7381,5.7434,5.7505,5.7513,5.7453,5.7449,5.757,5.7583,5.7596,5.7738,5.7632,5.764,5.7644,5.796,5.7964,5.7968,0,0,0,0,0,0,5.7162,5.7188,5.7399,5.7302,5.7328,5.7373,5.7433,5.7438,5.7473,5.7519,5.7526,5.7481,5.7567,5.7585,5.7687,5.7742,5.7643,5.7651,5.7955,5.7961,5.7966,5.8024,0,0,0,0,0,0,5.7154,5.7186,5.7234,5.7303,5.7333,5.7492,5.7436,5.7443,5.7489,5.7484,5.7547,5.7554,5.7566,5.7676,5.7695,5.7752,5.7657,5.795,5.7958,5.7965,5.8017,5.8031,5.8043,0,0,0,0,0,5.7144,5.7242,5.7237,5.7263,5.7396,5.7495,5.7512,5.7528,5.7493,5.754,5.757,5.7552,5.7734,5.7686,5.7708,5.7768,5.7947,5.7956,5.7964,5.8012,5.8028,5.8042,0,0,0,0,0,0,5.7172,5.7251,5.7246,5.7371,5.7428,5.7492,5.7552,5.7545,5.7609,5.7601,5.7614,5.7628,5.7732,5.776,5.7706,5.7885,5.7835,5.7848,5.7863,5.7879,5.7892,5.7882,5.7664,0,0,0,0,0,5.7194,5.7274,5.7336,5.7439,5.7469,5.7506,5.7549,5.7558,5.7614,5.7636,5.7673,5.7725,5.7793,5.7838,5.7904,5.8022,5.8033,5.8073,5.8086,5.8096,5.8107,5.817,5.8187,5.7996,5.7996,5.7996,0,0,5.7237,5.7291,5.7339,5.7447,5.7491,5.7569,5.7525,5.7609,5.7665,5.7647,5.7748,5.7777,5.7835,5.7946,5.7996,5.7972,5.8162,5.8107,5.8115,5.812,5.818,5.8198,5.8214,5.8002,5.8001,5.8,0,0,5.7357,5.7407,5.7499,5.7546,5.7616,5.764,5.7662,5.7729,5.7749,5.7851,5.784,5.7903,5.8022,5.8064,5.81,5.8237,5.8222,5.8258,5.8323,5.8384,5.8399,5.8413,5.846,5.8477,5.8269,5.8269,5.8269,0,5.7401,5.7523,5.7545,5.7631,5.7677,5.7671,5.7761,5.7804,5.7889,5.7919,5.7892,5.8042,5.808,5.82,5.8234,5.8264,5.8286,5.825,5.8396,5.841,5.8422,5.8468,5.8485,5.8273,5.8272,5.8272,5.8271,0,5.7572,5.7656,5.7721,5.7811,5.7864,5.7952,5.7983,5.8033,5.8037,5.8062,5.8165,5.8211,5.8286,5.8315,5.8317,5.8436,5.8419,5.8394,5.8343,5.8444,5.8487,5.8504,5.8278,5.8277,5.8276,5.8275,0,0,5.7711,5.7815,5.7838,5.7879,5.7957,5.802,5.8105,5.8184,5.8226,5.8285,5.8355,5.8456,5.8435,5.8476,5.8483,5.8537,5.8641,5.8505,5.8507,5.8528,5.8771,5.8789,5.8809,5.8632,5.8636,5.8638,5.8766,0,5.7837,5.7996,5.8018,5.8156,5.8232,5.8228,5.8302,5.8355,5.8381,5.8445,5.8471,5.8543,5.851,5.8535,5.8589,5.8617,5.8689,5.8608,5.8693,5.8695,5.8678,5.8831,5.8849,5.8968,5.8783,5.8786,5.8788,0,5.8005,5.8076,5.8223,5.8291,5.8324,5.8391,5.8465,5.8528,5.8587,5.8602,5.865,5.865,5.8734,5.8682,5.8795,5.874,5.8775,5.8794,5.8799,5.8806,5.8747,5.884,5.9006,5.9023,5.8814,5.8812,5.881,0,5.809,5.8221,5.8327,5.8361,5.8444,5.8491,5.8526,5.8583,5.8629,5.8691,5.872,5.879,5.8827,5.8879,5.8897,5.8857,5.9009,5.8958,5.902,5.902,5.905,5.9048,5.9223,5.9076,5.9076,5.9076,5.9075,0,5.8228,5.8317,5.8366,5.8431,5.853,5.8553,5.8648,5.8681,5.8731,5.8798,5.8796,5.8858,5.8878,5.8942,5.8955,5.9046,5.9063,5.9074,5.9076,5.9074,5.9072,5.9096,5.9088,5.908,5.9079,5.9079,5.9078,0,5.8339,5.8376,5.849,5.8561,5.8581,5.8651,5.8708,5.8768,5.8794,5.8879,5.89,5.8939,5.9014,5.9038,5.9126,5.9135,5.9241,5.9237,5.9223,5.9223,5.9283,5.9277,5.9478,5.9504,5.9342,5.9344,5.9345,0,5.8424,5.8494,5.8574,5.8622,5.8661,5.8737,5.8786,5.881,5.886,5.8933,5.8983,5.9059,5.912,5.9239,5.9273,5.934,5.9336,5.9402,5.9345,5.9341,5.9335,5.933,5.9336,5.9411,5.9413,5.9415,5.9416,0,5.8569,5.8585,5.8659,5.8739,5.8799,5.8861,5.8921,5.8958,5.8991,5.9046,5.9126,5.9174,5.9268,5.9341,5.9411,5.9441,5.9433,5.9434,5.9451,5.9449,5.9438,5.9443,5.9251,5.9428,5.9427,5.9426,5.9426,5.9425,5.8669,5.8731,5.8798,5.8879,5.8929,5.8985,5.9046,5.9082,5.9151,5.9233,5.9242,5.9327,5.9382,5.9475,5.951,5.9573,5.9554,5.9579,5.9585,5.9591,5.9596,5.943,5.9586,5.9585,5.9585,5.9585,5.9585,0,5.8813,5.8858,5.8933,5.902,5.9083,5.9077,5.9143,5.9194,5.9272,5.9327,5.939,5.948,5.9552,5.9592,5.9663,5.9706,5.9704,5.9724,5.9719,5.9726,5.961,5.9587,5.9724,5.9724,5.9724,5.9724,5.9724,5.9724,5.8896,5.9001,5.9025,5.9152,5.9193,5.9282,5.932,5.9371,5.9416,5.9519,5.9581,5.9609,5.9657,5.9732,5.9796,5.9806,5.983,5.9852,5.9859,5.9749,5.9735,5.9721,5.97,5.9858,5.9858,5.997,5.9971,5.9972]}]]